This is the latest recevied weather packets stored in our database for station/object K1JO. If no packets are shown the sender has not sent any weather packets the latest 10 day(s).
| Time | Temp. | Humidity | Pressure | Rain* | Wind** | Luminosity | Snow |
|---|---|---|---|---|---|---|---|
| 1777388700 | 15° C | 46% | 1020 hPa | 0 mm | - | 713 W/m² | - |
| 1777388397 | 15° C | 45% | 1020.2 hPa | 0 mm | - | 707 W/m² | - |
| 1777388097 | 14.44° C | 47% | 1020.2 hPa | 0 mm | - | 702 W/m² | - |
| 1777387793 | 14.44° C | 47% | 1020.4 hPa | 0 mm | - | 696 W/m² | - |
| 1777387490 | 14.44° C | 51% | 1020.4 hPa | 0 mm | - | 690 W/m² | - |
| 1777387185 | 14.44° C | 48% | 1020.5 hPa | 0 mm | - | 684 W/m² | - |
| 1777386881 | 14.44° C | 46% | 1020.7 hPa | 0 mm | - | 677 W/m² | - |
| 1777386578 | 13.89° C | 48% | 1020.7 hPa | 0 mm | - | 669 W/m² | - |
| 1777386275 | 13.89° C | 48% | 1020.9 hPa | 0 mm | - | 662 W/m² | - |
| 1777385972 | 13.89° C | 49% | 1021 hPa | 0 mm | - | 652 W/m² | - |
| 1777385668 | 13.89° C | 50% | 1020.9 hPa | 0 mm | - | 644 W/m² | - |
| 1777385366 | 13.33° C | 49% | 1020.9 hPa | 0 mm | - | 634 W/m² | - |
| 1777385062 | 13.89° C | 46% | 1020.9 hPa | 0 mm | - | 624 W/m² | - |
| 1777384759 | 13.33° C | 50% | 1021 hPa | 0 mm | - | 614 W/m² | - |
| 1777384455 | 12.22° C | 51% | 1020.9 hPa | 0 mm | - | 605 W/m² | - |
| 1777384150 | 12.78° C | 54% | 1021 hPa | 0 mm | - | 594 W/m² | - |
| 1777383847 | 11.67° C | 55% | 1021.2 hPa | 0 mm | - | 577 W/m² | - |
| 1777383543 | 12.78° C | 53% | 1021.1 hPa | 0 mm | - | 565 W/m² | - |
| 1777383239 | 12.22° C | 51% | 1021.2 hPa | 0 mm | - | 562 W/m² | - |
| 1777382935 | 12.22° C | 56% | 1021.1 hPa | 0 mm | - | 551 W/m² | - |
| 1777382630 | 11.67° C | 55% | 1021.1 hPa | 0 mm | - | 538 W/m² | - |
| 1777382326 | 10.56° C | 56% | 1020.8 hPa | 0 mm | - | 526 W/m² | - |
| 1777382023 | 11.11° C | 57% | 1021 hPa | 0 mm | - | 514 W/m² | - |
| 1777381719 | 10.56° C | 61% | 1021.1 hPa | 0 mm | - | 501 W/m² | - |
| 1777381413 | 11.11° C | 57% | 1021.1 hPa | 0 mm | - | 488 W/m² | - |
* Rain latest hour (hover to see other rain measurements)
** Current wind speed in m/s (hover to see current wind gust speed)